| time (UTC) | temp C | wind direction | speed KPH | gust KPH | rain 1hr cm | rain 24hr cm | rain mn cm | humidity % | barometer mb |
| 20260509004601 | 21 | 360 | 4.8 | 27.4 | 0.00 | 0.00 | 0.00 | 28 | 1004.1 |
| 20260509003557 | 21 | 351 | 9.7 | 27.4 | 0.00 | 0.00 | 0.00 | 27 | 1004.1 |
| 20260509003059 | 21 | 308 | 6.4 | 14.5 | 0.00 | 0.00 | 0.00 | 26 | 1004.0 |
| 20260509002556 | 21 | 269 | 6.4 | 16.1 | 0.00 | 0.00 | 0.00 | 27 | 1003.8 |
| 20260509002057 | 21 | 283 | 1.6 | 16.1 | 0.00 | 0.00 | 0.00 | 27 | 1004.0 |
| 20260509001556 | 21 | 275 | 4.8 | 16.1 | 0.00 | 0.00 | 0.00 | 26 | 1003.9 |
| 20260509001055 | 22 | 281 | 6.4 | 17.7 | 0.00 | 0.00 | 0.00 | 26 | 1003.9 |
| 20260509000555 | 22 | 290 | 8.0 | 20.9 | 0.00 | 0.00 | 0.00 | 26 | 1003.9 |
| 20260509000100 | 22 | 323 | 11.3 | 25.7 | 0.00 | 0.00 | 0.00 | 25 | 1004.0 |
| 20260508235555 | 23 | 272 | 12.9 | 25.7 | 0.00 | 0.00 | 0.00 | 24 | 1004.1 |
| 20260508235055 | 23 | 263 | 11.3 | 22.5 | 0.00 | 0.00 | 0.00 | 25 | 1004.2 |
| 20260508234556 | 22 | 238 | 6.4 | 16.1 | 0.00 | 0.00 | 0.00 | 27 | 1004.3 |
| 20260508233555 | 22 | 265 | 8.0 | 19.3 | 0.00 | 0.00 | 0.00 | 26 | 1004.5 |
| 20260508233053 | 22 | 249 | 8.0 | 19.3 | 0.00 | 0.00 | 0.00 | 26 | 1004.6 |
| 20260508232554 | 22 | 266 | 9.7 | 20.9 | 0.00 | 0.00 | 0.00 | 26 | 1004.7 |
| 20260508232052 | 23 | 268 | 12.9 | 20.9 | 0.00 | 0.00 | 0.00 | 25 | 1004.8 |
| 20260508231551 | 22 | 330 | 6.4 | 17.7 | 0.00 | 0.00 | 0.00 | 28 | 1004.9 |
| 20260508231051 | 21 | 318 | 8.0 | 19.3 | 0.00 | 0.00 | 0.00 | 27 | 1004.9 |
| 20260508230554 | 21 | 308 | 6.4 | 19.3 | 0.00 | 0.00 | 0.00 | 27 | 1005.0 |
| 20260508230050 | 22 | 317 | 8.0 | 25.7 | 0.00 | 0.00 | 0.00 | 27 | 1005.0 |
| 20260508225549 | 22 | 315 | 9.7 | 25.7 | 0.00 | 0.00 | 0.00 | 27 | 1005.2 |
| 20260508225051 | 22 | 348 | 8.0 | 27.4 | 0.00 | 0.00 | 0.00 | 26 | 1005.3 |
| 20260508224611 | 22 | 309 | 8.0 | 24.1 | 0.00 | 0.00 | 0.00 | 25 | 1005.4 |
| 20260508223551 | 22 | 248 | 11.3 | 24.1 | 0.00 | 0.00 | 0.00 | 25 | 1005.4 |
| 20260508223053 | 23 | 262 | 9.7 | 20.9 | 0.00 | 0.00 | 0.00 | 25 | 1005.6 |
| 20260508222551 | 22 | 286 | 4.8 | 25.7 | 0.00 | 0.00 | 0.00 | 26 | 1005.7 |
| 20260508222049 | 22 | 262 | 9.7 | 25.7 | 0.00 | 0.00 | 0.00 | 25 | 1005.7 |
| 20260508221549 | 22 | 327 | 8.0 | 20.9 | 0.00 | 0.00 | 0.00 | 25 | 1005.6 |
| 20260508221048 | 22 | 323 | 11.3 | 20.9 | 0.00 | 0.00 | 0.00 | 24 | 1005.7 |
| 20260508220548 | 23 | 295 | 11.3 | 17.7 | 0.00 | 0.00 | 0.00 | 24 | 1005.7 |
| 20260508220052 | 23 | 334 | 11.3 | 25.7 | 0.00 | 0.00 | 0.00 | 24 | 1005.7 |
| 20260508215547 | 23 | 263 | 14.5 | 25.7 | 0.00 | 0.00 | 0.00 | 23 | 1006.0 |
| 20260508215048 | 23 | 275 | 11.3 | 29.0 | 0.00 | 0.00 | 0.00 | 22 | 1005.8 |
| 20260508214546 | 23 | 301 | 9.7 | 24.1 | 0.00 | 0.00 | 0.00 | 23 | 1006.0 |
| 20260508213544 | 23 | 262 | 8.0 | 22.5 | 0.00 | 0.00 | 0.00 | 24 | 1006.0 |
| 20260508213044 | 23 | 278 | 11.3 | 22.5 | 0.00 | 0.00 | 0.00 | 23 | 1006.2 |
| 20260508212544 | 23 | 273 | 11.3 | 22.5 | 0.00 | 0.00 | 0.00 | 23 | 1006.2 |
| 20260508212042 | 23 | 275 | 9.7 | 25.7 | 0.00 | 0.00 | 0.00 | 24 | 1006.3 |
| 20260508211548 | 23 | 270 | 12.9 | 25.7 | 0.00 | 0.00 | 0.00 | 23 | 1006.3 |
| 20260508211041 | 23 | 329 | 6.4 | 25.7 | 0.00 | 0.00 | 0.00 | 23 | 1006.6 |
| 20260508210540 | 23 | 280 | 11.3 | 25.7 | 0.00 | 0.00 | 0.00 | 24 | 1006.5 |
| 20260508210044 | 22 | 314 | 6.4 | 22.5 | 0.00 | 0.00 | 0.00 | 24 | 1006.7 |
| 20260508205543 | 22 | 290 | 12.9 | 22.5 | 0.00 | 0.00 | 0.00 | 23 | 1006.8 |
| 20260508205038 | 22 | 314 | 8.0 | 19.3 | 0.00 | 0.00 | 0.00 | 24 | 1006.9 |
| 20260508204637 | 23 | 259 | 11.3 | 25.7 | 0.00 | 0.00 | 0.00 | 23 | 1007.0 |
| 20260508203535 | 23 | 268 | 14.5 | 20.9 | 0.00 | 0.00 | 0.00 | 25 | 1007.0 |
| 20260508203041 | 22 | 226 | 8.0 | 27.4 | 0.00 | 0.00 | 0.00 | 24 | 1007.1 |
| 20260508202535 | 22 | 319 | 14.5 | 27.4 | 0.00 | 0.00 | 0.00 | 24 | 1007.2 |
| 20260508202036 | 22 | 13 | 8.0 | 24.1 | 0.00 | 0.00 | 0.00 | 24 | 1007.1 |
| 20260508201534 | 23 | 267 | 12.9 | 24.1 | 0.00 | 0.00 | 0.00 | 24 | 1007.1 |
| 20260508201032 | 22 | 252 | 9.7 | 25.7 | 0.00 | 0.00 | 0.00 | 24 | 1007.2 |
| 20260508200532 | 22 | 287 | 11.3 | 24.1 | 0.00 | 0.00 | 0.00 | 25 | 1007.2 |
| 20260508200033 | 22 | 267 | 8.0 | 19.3 | 0.00 | 0.00 | 0.00 | 25 | 1007.5 |
| 20260508195532 | 22 | 264 | 6.4 | 19.3 | 0.00 | 0.00 | 0.00 | 24 | 1007.5 |
| 20260508195028 | 22 | 330 | 4.8 | 19.3 | 0.00 | 0.00 | 0.00 | 25 | 1007.7 |
| 20260508194535 | 22 | 323 | 8.0 | 25.7 | 0.00 | 0.00 | 0.00 | 24 | 1007.9 |
| 20260508193532 | 22 | 308 | 8.0 | 25.7 | 0.00 | 0.00 | 0.00 | 24 | 1007.9 |
| 20260508193031 | 22 | 284 | 11.3 | 22.5 | 0.00 | 0.00 | 0.00 | 24 | 1008.0 |
| 20260508192532 | 21 | 256 | 6.4 | 19.3 | 0.00 | 0.00 | 0.00 | 24 | 1008.2 |
| 20260508192031 | 22 | 247 | 9.7 | 27.4 | 0.00 | 0.00 | 0.00 | 23 | 1008.1 |
| 20260508191535 | 22 | 243 | 9.7 | 27.4 | 0.00 | 0.00 | 0.00 | 25 | 1008.2 |
| 20260508191028 | 21 | 265 | 9.7 | 25.7 | 0.00 | 0.00 | 0.00 | 24 | 1008.4 |
| 20260508190529 | 21 | 110 | 3.2 | 22.5 | 0.00 | 0.00 | 0.00 | 23 | 1008.2 |
| 20260508190027 | 21 | 267 | 9.7 | 22.5 | 0.00 | 0.00 | 0.00 | 24 | 1008.5 |
| 20260508185527 | 21 | 261 | 6.4 | 17.7 | 0.00 | 0.00 | 0.00 | 25 | 1008.4 |
| 20260508185026 | 21 | 318 | 9.7 | 17.7 | 0.00 | 0.00 | 0.00 | 25 | 1008.6 |
| 20260508184526 | 21 | 301 | 6.4 | 16.1 | 0.00 | 0.00 | 0.00 | 24 | 1008.6 |
| 20260508183525 | 21 | 302 | 9.7 | 20.9 | 0.00 | 0.00 | 0.00 | 25 | 1008.9 |
| 20260508183031 | 20 | 325 | 3.2 | 22.5 | 0.00 | 0.00 | 0.00 | 25 | 1008.8 |
| 20260508182525 | 20 | 326 | 6.4 | 22.5 | 0.00 | 0.00 | 0.00 | 25 | 1009.0 |
| 20260508182025 | 21 | 211 | 9.7 | 22.5 | 0.00 | 0.00 | 0.00 | 25 | 1009.1 |
| 20260508181522 | 20 | 309 | 11.3 | 22.5 | 0.00 | 0.00 | 0.00 | 25 | 1009.2 |
| 20260508181021 | 20 | 317 | 6.4 | 17.7 | 0.00 | 0.00 | 0.00 | 25 | 1009.2 |
| 20260508180522 | 20 | 355 | 6.4 | 24.1 | 0.00 | 0.00 | 0.00 | 25 | 1009.3 |
| 20260508180023 | 20 | 257 | 9.7 | 24.1 | 0.00 | 0.00 | 0.00 | 25 | 1009.4 |
| 20260508175521 | 20 | 269 | 6.4 | 24.1 | 0.00 | 0.00 | 0.00 | 26 | 1009.5 |
| 20260508175021 | 20 | 273 | 11.3 | 24.1 | 0.00 | 0.00 | 0.00 | 25 | 1009.8 |
| 20260508174520 | 20 | 306 | 3.2 | 17.7 | 0.00 | 0.00 | 0.00 | 26 | 1009.7 |
| 20260508173516 | 20 | 281 | 6.4 | 22.5 | 0.00 | 0.00 | 0.00 | 26 | 1009.8 |
| 20260508173015 | 19 | 277 | 9.7 | 22.5 | 0.00 | 0.00 | 0.00 | 26 | 1010.0 |
| 20260508172517 | 20 | 271 | 8.0 | 16.1 | 0.00 | 0.00 | 0.00 | 26 | 1009.9 |
| 20260508172014 | 20 | 273 | 4.8 | 19.3 | 0.00 | 0.00 | 0.00 | 26 | 1010.0 |
| 20260508171515 | 20 | 234 | 9.7 | 19.3 | 0.00 | 0.00 | 0.00 | 26 | 1010.0 |
| 20260508171013 | 19 | 289 | 4.8 | 12.9 | 0.00 | 0.00 | 0.00 | 27 | 1010.0 |
| 20260508170512 | 19 | 336 | 4.8 | 17.7 | 0.00 | 0.00 | 0.00 | 26 | 1010.3 |
| 20260508170012 | 19 | 286 | 9.7 | 17.7 | 0.00 | 0.00 | 0.00 | 26 | 1010.2 |
| 20260508165511 | 18 | 261 | 4.8 | 16.1 | 0.00 | 0.00 | 0.00 | 27 | 1010.2 |
| 20260508165011 | 19 | 334 | 3.2 | 19.3 | 0.00 | 0.00 | 0.00 | 27 | 1010.2 |
| 20260508164510 | 18 | 282 | 8.0 | 19.3 | 0.00 | 0.00 | 0.00 | 28 | 1010.3 |
| 20260508163510 | 18 | 360 | 6.4 | 16.1 | 0.00 | 0.00 | 0.00 | 28 | 1010.3 |
| 20260508163012 | 18 | 276 | 1.6 | 12.9 | 0.00 | 0.00 | 0.00 | 28 | 1010.2 |
| 20260508162509 | 18 | 281 | 4.8 | 12.9 | 0.00 | 0.00 | 0.00 | 29 | 1010.5 |
| 20260508162007 | 18 | 284 | 4.8 | 14.5 | 0.00 | 0.00 | 0.00 | 29 | 1010.5 |
| 20260508161507 | 18 | 319 | 6.4 | 14.5 | 0.00 | 0.00 | 0.00 | 29 | 1010.5 |
| 20260508161006 | 17 | 45 | 1.6 | 12.9 | 0.00 | 0.00 | 0.00 | 29 | 1010.4 |
| 20260508160507 | 17 | 355 | 1.6 | 12.9 | 0.00 | 0.00 | 0.00 | 29 | 1010.5 |
| 20260508160012 | 17 | 277 | 0.0 | 11.3 | 0.00 | 0.00 | 0.00 | 29 | 1010.6 |
| 20260508155507 | 17 | 23 | 4.8 | 11.3 | 0.00 | 0.00 | 0.00 | 30 | 1010.7 |
| 20260508155003 | 17 | 5 | 3.2 | 14.5 | 0.00 | 0.00 | 0.00 | 30 | 1010.7 |
| 20260508154502 | 17 | 283 | 3.2 | 8.0 | 0.00 | 0.00 | 0.00 | 30 | 1010.6 |
| 20260508153508 | 17 | 47 | 3.2 | 8.0 | 0.00 | 0.00 | 0.00 | 30 | 1010.7 |
| 20260508153003 | 16 | 5 | 3.2 | 9.7 | 0.00 | 0.00 | 0.00 | 31 | 1010.7 |
| 20260508152506 | 16 | 355 | 4.8 | 9.7 | 0.00 | 0.00 | 0.00 | 30 | 1010.8 |
| 20260508152004 | 16 | 46 | 6.4 | 12.9 | 0.00 | 0.00 | 0.00 | 30 | 1010.7 |
| 20260508151501 | 16 | 347 | 1.6 | 12.9 | 0.00 | 0.00 | 0.00 | 31 | 1010.9 |
| 20260508151002 | 16 | 42 | 3.2 | 11.3 | 0.00 | 0.00 | 0.00 | 32 | 1010.9 |
| 20260508150502 | 16 | 50 | 4.8 | 9.7 | 0.00 | 0.00 | 0.00 | 33 | 1010.8 |
| 20260508150004 | 16 | 308 | 3.2 | 12.9 | 0.00 | 0.00 | 0.00 | 32 | 1011.0 |
| 20260508145559 | 16 | 86 | 4.8 | 16.1 | 0.00 | 0.00 | 0.00 | 32 | 1010.9 |
| 20260508145100 | 16 | 5 | 6.4 | 16.1 | 0.00 | 0.00 | 0.00 | 32 | 1011.0 |
| 20260508144602 | 15 | 311 | 4.8 | 12.9 | 0.00 | 0.00 | 0.00 | 33 | 1011.0 |
| 20260508143558 | 15 | 5 | 3.2 | 12.9 | 0.00 | 0.00 | 0.00 | 35 | 1011.2 |
| 20260508143119 | 15 | 355 | 3.2 | 8.0 | 0.00 | 0.00 | 0.00 | 35 | 1011.0 |
| 20260508142554 | 15 | 348 | 3.2 | 9.7 | 0.00 | 0.00 | 0.00 | 37 | 1011.0 |
| 20260508142053 | 15 | 315 | 4.8 | 9.7 | 0.00 | 0.00 | 0.00 | 37 | 1011.2 |
| 20260508141552 | 15 | 315 | 3.2 | 8.0 | 0.00 | 0.00 | 0.00 | 38 | 1011.2 |
| 20260508141052 | 15 | 315 | 3.2 | 12.9 | 0.00 | 0.00 | 0.00 | 39 | 1011.2 |
| 20260508140549 | 14 | 325 | 4.8 | 12.9 | 0.00 | 0.00 | 0.00 | 39 | 1011.1 |
| 20260508135550 | 13 | 292 | 1.6 | 8.0 | 0.00 | 0.00 | 0.00 | 40 | 1011.1 |
| 20260508135046 | 13 | 309 | 1.6 | 8.0 | 0.00 | 0.00 | 0.00 | 41 | 1011.1 |
| 20260508134544 | 13 | 312 | 3.2 | 12.9 | 0.00 | 0.00 | 0.00 | 42 | 1011.0 |
| 20260508133546 | 12 | 303 | 0.0 | 9.7 | 0.00 | 0.00 | 0.00 | 46 | 1011.1 |
| 20260508133049 | 12 | 302 | 3.2 | 9.7 | 0.00 | 0.00 | 0.00 | 46 | 1010.9 |
| 20260508132544 | 11 | 294 | 1.6 | 9.7 | 0.00 | 0.00 | 0.00 | 48 | 1010.9 |
| 20260508132042 | 11 | 303 | 1.6 | 8.0 | 0.00 | 0.00 | 0.00 | 50 | 1010.8 |
| 20260508131541 | 11 | 310 | 1.6 | 8.0 | 0.00 | 0.00 | 0.00 | 50 | 1010.8 |
| 20260508131040 | 10 | 294 | 3.2 | 6.4 | 0.00 | 0.00 | 0.00 | 51 | 1010.7 |
| 20260508130538 | 10 | 321 | 1.6 | 6.4 | 0.00 | 0.00 | 0.00 | 53 | 1010.6 |
| 20260508130038 | 9 | 290 | 0.0 | 6.4 | 0.00 | 0.00 | 0.00 | 55 | 1010.6 |
| 20260508125538 | 8 | 287 | 0.0 | 3.2 | 0.00 | 0.00 | 0.00 | 57 | 1010.6 |
| 20260508125036 | 8 | 287 | 0.0 | 6.4 | 0.00 | 0.00 | 0.00 | 58 | 1010.5 |
| 20260508124536 | 8 | 282 | 0.0 | 6.4 | 0.00 | 0.00 | 0.00 | 59 | 1010.5 |
| 20260508123532 | 7 | 309 | 0.0 | 4.8 | 0.00 | 0.00 | 0.00 | 60 | 1010.4 |
| 20260508123034 | 7 | 309 | 1.6 | 6.4 | 0.00 | 0.00 | 0.00 | 61 | 1010.3 |
| 20260508122530 | 7 | 310 | 3.2 | 6.4 | 0.00 | 0.00 | 0.00 | 61 | 1010.2 |
| 20260508122030 | 7 | 284 | 1.6 | 6.4 | 0.00 | 0.00 | 0.00 | 62 | 1010.3 |
| 20260508121530 | 7 | 309 | 0.0 | 4.8 | 0.00 | 0.00 | 0.00 | 62 | 1010.1 |
| 20260508121029 | 7 | 309 | 1.6 | 6.4 | 0.00 | 0.00 | 0.00 | 62 | 1010.1 |
| 20260508120528 | 6 | 308 | 1.6 | 6.4 | 0.00 | 0.00 | 0.00 | 63 | 1010.1 |
| 20260508120028 | 6 | 307 | 1.6 | 6.4 | 0.00 | 0.00 | 0.00 | 63 | 1010.1 |
| 20260508115527 | 6 | 304 | 1.6 | 6.4 | 0.00 | 0.00 | 0.00 | 64 | 1010.0 |
| 20260508115028 | 6 | 302 | 3.2 | 6.4 | 0.00 | 0.00 | 0.00 | 65 | 1010.0 |
| 20260508114527 | 6 | 317 | 0.0 | 6.4 | 0.00 | 0.00 | 0.00 | 65 | 1009.8 |
| 20260508113526 | 6 | 308 | 1.6 | 4.8 | 0.00 | 0.00 | 0.00 | 64 | 1009.9 |
| 20260508113025 | 7 | 308 | 1.6 | 4.8 | 0.00 | 0.00 | 0.00 | 63 | 1009.7 |
| 20260508112527 | 7 | 307 | 1.6 | 8.0 | 0.00 | 0.00 | 0.00 | 64 | 1009.6 |
| 20260508112023 | 7 | 304 | 3.2 | 8.0 | 0.00 | 0.00 | 0.00 | 64 | 1009.4 |
| 20260508111523 | 7 | 316 | 1.6 | 6.4 | 0.00 | 0.00 | 0.00 | 63 | 1009.3 |
| 20260508111022 | 7 | 24 | 1.6 | 8.0 | 0.00 | 0.00 | 0.00 | 63 | 1009.4 |
| 20260508110520 | 7 | 355 | 4.8 | 9.7 | 0.00 | 0.00 | 0.00 | 64 | 1009.4 |
| 20260508110019 | 7 | 22 | 6.4 | 9.7 | 0.00 | 0.00 | 0.00 | 64 | 1009.3 |
| 20260508105519 | 7 | 294 | 0.0 | 12.9 | 0.00 | 0.00 | 0.00 | 65 | 1009.2 |
| 20260508105018 | 7 | 308 | 3.2 | 12.9 | 0.00 | 0.00 | 0.00 | 65 | 1008.9 |
| 20260508104517 | 7 | 35 | 1.6 | 9.7 | 0.00 | 0.00 | 0.00 | 65 | 1008.9 |
| 20260508103516 | 8 | 313 | 4.8 | 9.7 | 0.00 | 0.00 | 0.00 | 66 | 1008.7 |
| 20260508103020 | 8 | 297 | 3.2 | 12.9 | 0.00 | 0.00 | 0.00 | 65 | 1008.6 |
| 20260508102514 | 8 | 281 | 3.2 | 11.3 | 0.00 | 0.00 | 0.00 | 65 | 1008.5 |
| 20260508102013 | 8 | 287 | 4.8 | 12.9 | 0.00 | 0.00 | 0.00 | 64 | 1008.4 |
| 20260508101512 | 8 | 284 | 4.8 | 16.1 | 0.00 | 0.00 | 0.00 | 63 | 1008.4 |
| 20260508101013 | 9 | 307 | 6.4 | 17.7 | 0.00 | 0.00 | 0.00 | 63 | 1008.4 |
| 20260508100511 | 9 | 284 | 9.7 | 17.7 | 0.00 | 0.00 | 0.00 | 63 | 1008.3 |
| 20260508100020 | 9 | 292 | 6.4 | 17.7 | 0.00 | 0.00 | 0.00 | 64 | 1008.1 |
| 20260508095511 | 9 | 317 | 9.7 | 19.3 | 0.00 | 0.00 | 0.00 | 65 | 1008.2 |
| 20260508095013 | 9 | 285 | 11.3 | 20.9 | 0.00 | 0.00 | 0.00 | 64 | 1008.0 |
| 20260508094512 | 10 | 336 | 11.3 | 20.9 | 0.00 | 0.00 | 0.00 | 64 | 1008.1 |
| 20260508093511 | 10 | 293 | 12.9 | 25.7 | 0.00 | 0.00 | 0.00 | 65 | 1008.1 |
| 20260508093008 | 9 | 279 | 11.3 | 25.7 | 0.00 | 0.00 | 0.00 | 66 | 1008.1 |
| 20260508092510 | 9 | 279 | 9.7 | 19.3 | 0.00 | 0.00 | 0.00 | 66 | 1008.2 |
| 20260508092007 | 10 | 300 | 9.7 | 19.3 | 0.00 | 0.00 | 0.00 | 65 | 1007.9 |
| 20260508091506 | 10 | 277 | 9.7 | 17.7 | 0.00 | 0.00 | 0.00 | 65 | 1008.0 |
| 20260508091006 | 10 | 275 | 9.7 | 17.7 | 0.00 | 0.00 | 0.00 | 65 | 1007.8 |
| 20260508090605 | 10 | 281 | 9.7 | 14.5 | 0.00 | 0.00 | 0.00 | 66 | 1007.9 |
| 20260508090005 | 9 | 300 | 6.4 | 16.1 | 0.00 | 0.00 | 0.00 | 67 | 1007.8 |
| 20260508085504 | 9 | 292 | 6.4 | 12.9 | 0.00 | 0.00 | 0.00 | 67 | 1007.8 |
| 20260508085007 | 9 | 317 | 4.8 | 12.9 | 0.00 | 0.00 | 0.00 | 68 | 1007.9 |
| 20260508084505 | 8 | 302 | 4.8 | 12.9 | 0.00 | 0.00 | 0.00 | 68 | 1007.7 |
| 20260508083505 | 8 | 291 | 4.8 | 8.0 | 0.00 | 0.00 | 0.00 | 69 | 1007.8 |
| 20260508083005 | 9 | 299 | 1.6 | 9.7 | 0.00 | 0.00 | 0.00 | 68 | 1007.8 |
| 20260508082504 | 9 | 304 | 6.4 | 11.3 | 0.00 | 0.00 | 0.00 | 66 | 1007.8 |
| 20260508082004 | 10 | 327 | 6.4 | 16.1 | 0.00 | 0.00 | 0.00 | 65 | 1007.9 |
| 20260508081504 | 10 | 292 | 6.4 | 19.3 | 0.00 | 0.00 | 0.00 | 66 | 1008.0 |
| 20260508081003 | 10 | 275 | 6.4 | 19.3 | 0.00 | 0.00 | 0.00 | 67 | 1007.9 |
| 20260508080502 | 9 | 274 | 4.8 | 11.3 | 0.00 | 0.00 | 0.00 | 68 | 1008.1 |
| 20260508080006 | 9 | 284 | 4.8 | 8.0 | 0.00 | 0.00 | 0.00 | 68 | 1008.0 |
| 20260508075503 | 8 | 273 | 3.2 | 9.7 | 0.00 | 0.00 | 0.00 | 68 | 1008.2 |
| 20260508075004 | 8 | 272 | 4.8 | 9.7 | 0.00 | 0.00 | 0.00 | 67 | 1008.0 |
| 20260508074502 | 9 | 272 | 3.2 | 6.4 | 0.00 | 0.00 | 0.00 | 67 | 1008.1 |
| 20260508073503 | 9 | 272 | 4.8 | 11.3 | 0.00 | 0.00 | 0.00 | 64 | 1008.3 |
| 20260508073003 | 10 | 272 | 4.8 | 11.3 | 0.00 | 0.00 | 0.00 | 63 | 1008.2 |
| 20260508072502 | 10 | 271 | 4.8 | 14.5 | 0.00 | 0.00 | 0.00 | 62 | 1008.3 |
| 20260508072002 | 10 | 258 | 6.4 | 14.5 | 0.00 | 0.00 | 0.00 | 61 | 1008.2 |
| 20260508071502 | 10 | 271 | 4.8 | 14.5 | 0.00 | 0.00 | 0.00 | 61 | 1008.2 |
| 20260508071100 | 10 | 241 | 4.8 | 14.5 | 0.00 | 0.00 | 0.00 | 59 | 1008.4 |
| 20260508070603 | 10 | 245 | 6.4 | 12.9 | 0.00 | 0.00 | 0.00 | 59 | 1008.2 |
| 20260508065559 | 10 | 254 | 4.8 | 11.3 | 0.00 | 0.00 | 0.00 | 59 | 1008.2 |
| 20260508065101 | 10 | 244 | 4.8 | 9.7 | 0.00 | 0.00 | 0.00 | 58 | 1008.3 |
| 20260508064600 | 10 | 253 | 3.2 | 8.0 | 0.00 | 0.00 | 0.00 | 57 | 1008.3 |
| 20260508063553 | 9 | 250 | 4.8 | 12.9 | 0.00 | 0.00 | 0.00 | 57 | 1008.4 |
| 20260508063054 | 9 | 240 | 6.4 | 12.9 | 0.00 | 0.00 | 0.00 | 55 | 1008.3 |
| 20260508062552 | 9 | 240 | 4.8 | 12.9 | 0.00 | 0.00 | 0.00 | 54 | 1008.4 |
| 20260508062054 | 9 | 244 | 6.4 | 11.3 | 0.00 | 0.00 | 0.00 | 53 | 1008.3 |
| 20260508061552 | 10 | 254 | 6.4 | 11.3 | 0.00 | 0.00 | 0.00 | 53 | 1008.3 |
| 20260508061051 | 10 | 244 | 6.4 | 11.3 | 0.00 | 0.00 | 0.00 | 53 | 1008.5 |
| 20260508060551 | 10 | 251 | 4.8 | 11.3 | 0.00 | 0.00 | 0.00 | 51 | 1008.4 |
| 20260508060051 | 9 | 248 | 4.8 | 9.7 | 0.00 | 0.00 | 0.00 | 53 | 1008.6 |
| 20260508055551 | 9 | 263 | 6.4 | 9.7 | 0.00 | 0.00 | 0.00 | 52 | 1008.6 |
| 20260508055051 | 9 | 263 | 4.8 | 9.7 | 0.00 | 0.00 | 0.00 | 53 | 1008.7 |
| 20260508054554 | 9 | 263 | 6.4 | 9.7 | 0.00 | 0.00 | 0.00 | 53 | 1008.7 |
| 20260508053553 | 8 | 262 | 6.4 | 9.7 | 0.00 | 0.00 | 0.00 | 51 | 1008.8 |
| 20260508053056 | 8 | 262 | 4.8 | 9.7 | 0.00 | 0.00 | 0.00 | 51 | 1008.8 |
| 20260508052553 | 8 | 261 | 4.8 | 6.4 | 0.00 | 0.00 | 0.00 | 50 | 1008.9 |
| 20260508052050 | 8 | 261 | 4.8 | 6.4 | 0.00 | 0.00 | 0.00 | 50 | 1008.8 |
| 20260508051602 | 9 | 261 | 3.2 | 6.4 | 0.00 | 0.00 | 0.00 | 49 | 1008.7 |
| 20260508051050 | 10 | 261 | 3.2 | 6.4 | 0.00 | 0.00 | 0.00 | 48 | 1009.0 |
| 20260508050550 | 10 | 261 | 3.2 | 6.4 | 0.00 | 0.00 | 0.00 | 47 | 1009.0 |
| 20260508045549 | 10 | 261 | 4.8 | 9.7 | 0.00 | 0.00 | 0.00 | 48 | 1009.1 |
| 20260508045049 | 10 | 261 | 4.8 | 6.4 | 0.00 | 0.00 | 0.00 | 48 | 1008.9 |
| 20260508044554 | 10 | 261 | 3.2 | 6.4 | 0.00 | 0.00 | 0.00 | 46 | 1008.9 |
| 20260508043550 | 10 | 261 | 3.2 | 6.4 | 0.00 | 0.00 | 0.00 | 46 | 1008.9 |
| 20260508043050 | 10 | 259 | 3.2 | 6.4 | 0.00 | 0.00 | 0.00 | 46 | 1008.8 |
| 20260508042550 | 10 | 259 | 3.2 | 6.4 | 0.00 | 0.00 | 0.00 | 46 | 1008.7 |
| 20260508042050 | 10 | 259 | 3.2 | 6.4 | 0.00 | 0.00 | 0.00 | 46 | 1008.7 |
| 20260508041554 | 11 | 257 | 3.2 | 8.0 | 0.00 | 0.00 | 0.00 | 45 | 1008.8 |
| 20260508041050 | 11 | 258 | 3.2 | 8.0 | 0.00 | 0.00 | 0.00 | 45 | 1009.0 |
| 20260508040549 | 11 | 292 | 1.6 | 4.8 | 0.00 | 0.00 | 0.00 | 45 | 1008.9 |
| 20260508040057 | 11 | 292 | 0.0 | 0.0 | 0.00 | 0.00 | 0.00 | 46 | 1008.9 |
| 20260508035552 | 11 | 292 | 0.0 | 0.0 | 0.00 | 0.00 | 0.00 | 46 | 1008.9 |
| 20260508035049 | 11 | 292 | 0.0 | 0.0 | 0.00 | 0.00 | 0.00 | 45 | 1009.0 |
| 20260508034549 | 11 | 292 | 0.0 | 1.6 | 0.00 | 0.00 | 0.00 | 46 | 1009.1 |
| 20260508033550 | 10 | 292 | 1.6 | 3.2 | 0.00 | 0.00 | 0.00 | 45 | 1009.0 |
| 20260508033048 | 11 | 292 | 1.6 | 3.2 | 0.00 | 0.00 | 0.00 | 45 | 1009.2 |
| 20260508032547 | 11 | 292 | 1.6 | 3.2 | 0.00 | 0.00 | 0.00 | 44 | 1009.2 |
| 20260508032047 | 11 | 292 | 1.6 | 4.8 | 0.00 | 0.00 | 0.00 | 44 | 1009.0 |
| 20260508031546 | 11 | 292 | 3.2 | 4.8 | 0.00 | 0.00 | 0.00 | 43 | 1009.1 |
| 20260508031046 | 11 | 292 | 1.6 | 4.8 | 0.00 | 0.00 | 0.00 | 43 | 1009.0 |
| 20260508030546 | 11 | 292 | 1.6 | 4.8 | 0.00 | 0.00 | 0.00 | 42 | 1009.1 |
| 20260508030052 | 11 | 292 | 1.6 | 4.8 | 0.00 | 0.00 | 0.00 | 43 | 1009.0 |
| 20260508025545 | 11 | 292 | 3.2 | 4.8 | 0.00 | 0.00 | 0.00 | 42 | 1009.0 |
| 20260508025045 | 11 | 292 | 3.2 | 4.8 | 0.00 | 0.00 | 0.00 | 42 | 1009.1 |
| 20260508024545 | 11 | 292 | 1.6 | 4.8 | 0.00 | 0.00 | 0.00 | 42 | 1009.0 |
| 20260508023546 | 11 | 292 | 1.6 | 3.2 | 0.00 | 0.00 | 0.00 | 40 | 1008.8 |
| 20260508023045 | 12 | 292 | 1.6 | 4.8 | 0.00 | 0.00 | 0.00 | 38 | 1008.9 |
| 20260508022546 | 12 | 292 | 1.6 | 4.8 | 0.00 | 0.00 | 0.00 | 37 | 1008.7 |
| 20260508022048 | 13 | 292 | 3.2 | 4.8 | 0.00 | 0.00 | 0.00 | 34 | 1008.7 |
| 20260508021545 | 14 | 292 | 0.0 | 1.6 | 0.00 | 0.00 | 0.00 | 34 | 1008.8 |
| 20260508021044 | 15 | 292 | 0.0 | 1.6 | 0.00 | 0.00 | 0.00 | 33 | 1008.7 |
| 20260508020547 | 15 | 292 | 0.0 | 1.6 | 0.00 | 0.00 | 0.00 | 32 | 1008.7 |
| 20260508020044 | 16 | 293 | 0.0 | 1.6 | 0.00 | 0.00 | 0.00 | 31 | 1008.6 |
| 20260508015544 | 16 | 293 | 0.0 | 0.0 | 0.00 | 0.00 | 0.00 | 30 | 1008.7 |
| 20260508015044 | 17 | 293 | 0.0 | 1.6 | 0.00 | 0.00 | 0.00 | 30 | 1008.6 |
| 20260508014544 | 17 | 293 | 0.0 | 1.6 | 0.00 | 0.00 | 0.00 | 30 | 1008.6 |
| 20260508013548 | 17 | 293 | 1.6 | 6.4 | 0.00 | 0.00 | 0.00 | 29 | 1008.6 |
| 20260508013048 | 17 | 292 | 0.0 | 6.4 | 0.00 | 0.00 | 0.00 | 29 | 1008.7 |
| 20260508012548 | 17 | 265 | 1.6 | 8.0 | 0.00 | 0.00 | 0.00 | 28 | 1008.7 |
| 20260508012049 | 17 | 310 | 3.2 | 9.7 | 0.00 | 0.00 | 0.00 | 28 | 1008.5 |
| 20260508011548 | 17 | 283 | 3.2 | 12.9 | 0.00 | 0.00 | 0.00 | 28 | 1008.6 |
| 20260508011047 | 18 | 309 | 4.8 | 12.9 | 0.00 | 0.00 | 0.00 | 27 | 1008.6 |
| 20260508010547 | 18 | 309 | 3.2 | 12.9 | 0.00 | 0.00 | 0.00 | 27 | 1008.6 |
| 20260508010049 | 18 | 307 | 4.8 | 12.9 | 0.00 | 0.00 | 0.00 | 27 | 1008.7 |
| 20260508005547 | 18 | 284 | 3.2 | 12.9 | 0.00 | 0.00 | 0.00 | 27 | 1008.7 |
| 20260508005048 | 18 | 290 | 3.2 | 17.7 | 0.00 | 0.00 | 0.00 | 27 | 1008.7 |